EW3244 Weather Reports


time (UTC)temp
F
wind
direction
speed
knots
gust
knots
rain 1hr
in
rain 24hr
in
rain mn
in
humidity
%
barometer
mb
20260506061553 45 97 0.0 0.9 0.00 0.00 0.00 55 1012.1
20260506044543 37 84 0.0 0.0 0.00 0.00 0.00 74 1012.1
20260506043033 35 84 0.0 0.0 0.00 0.00 0.00 79 1012.0
20260506041528 31 84 0.0 0.0 0.00 0.00 0.00 83 1011.9
20260506040001 28 84 0.0 0.0 0.00 0.00 0.00 85 1011.8
20260506034601 24 84 0.0 0.0 0.00 0.00 0.00 85 1011.7
20260506033058 24 84 0.0 0.9 0.00 0.00 0.00 85 1011.7
20260506031602 24 84 0.0 0.0 0.00 0.00 0.00 85 1011.6
20260506030111 24 84 0.0 0.0 0.00 0.00 0.00 85 1011.5
20260506024559 24 84 0.0 0.9 0.00 0.00 0.00 85 1011.6
20260506023054 24 84 0.0 0.0 0.00 0.00 0.00 85 1011.4
20260506021559 24 84 0.0 0.0 0.00 0.00 0.00 84 1011.4
20260506020149 24 84 0.0 0.9 0.00 0.00 0.00 84 1011.3
20260506014556 24 84 0.0 0.0 0.00 0.00 0.00 84 1011.2
20260506013044 25 84 0.0 0.0 0.00 0.00 0.00 84 1011.2
20260506011529 25 84 0.0 0.9 0.00 0.00 0.00 83 1011.0
20260506010018 25 84 0.0 0.9 0.00 0.00 0.00 83 1011.0
20260506004524 26 84 0.0 0.9 0.00 0.00 0.00 83 1010.8
20260506003012 26 84 0.0 0.9 0.00 0.00 0.00 82 1010.7
20260506001512 26 84 0.0 0.9 0.00 0.00 0.00 82 1010.6
20260506000012 27 84 0.0 0.9 0.00 0.00 0.00 82 1010.5
20260505234507 27 84 0.0 0.9 0.00 0.00 0.00 81 1010.5
20260505233044 27 84 0.0 0.9 0.00 0.00 0.00 82 1010.6
20260505231541 27 84 0.0 0.0 0.00 0.00 0.00 81 1010.6
20260505230018 27 84 0.0 0.0 0.00 0.00 0.00 81 1010.5
20260505224551 27 84 0.0 0.0 0.00 0.00 0.00 80 1010.5
20260505223051 28 84 0.0 0.0 0.00 0.00 0.00 78 1010.5
20260505221546 29 84 0.0 0.0 0.00 0.00 0.00 77 1010.5
20260505220044 29 84 0.0 0.0 0.00 0.00 0.00 76 1010.4
20260505214539 30 84 0.0 0.0 0.00 0.00 0.00 74 1010.3
20260505213043 31 84 0.0 0.9 0.00 0.00 0.00 72 1010.3
20260505211536 32 84 0.0 0.0 0.00 0.00 0.00 70 1010.3
20260505210030 33 84 0.0 0.0 0.00 0.00 0.00 67 1010.1
20260505204531 34 84 0.0 0.0 0.00 0.00 0.00 64 1010.1
20260505203027 35 84 0.0 0.9 0.00 0.00 0.00 61 1009.9
20260505201519 36 84 0.0 0.9 0.00 0.00 0.00 60 1009.9
20260505200016 39 84 0.0 0.9 0.00 0.00 0.00 52 1009.7
20260505194513 40 84 0.0 0.0 0.00 0.00 0.00 47 1009.6
20260505193010 41 84 0.0 0.0 0.00 0.00 0.00 46 1009.4
20260505191506 42 84 0.0 0.0 0.00 0.00 0.00 45 1009.4
20260505190004 44 84 0.0 2.6 0.00 0.00 0.00 41 1009.3
20260505184502 46 84 0.0 2.6 0.00 0.00 0.00 38 1009.1
20260505183059 47 84 0.0 2.6 0.00 0.00 0.00 38 1008.9
20260505181557 48 86 1.7 6.1 0.00 0.00 0.00 37 1008.7
20260505180055 48 95 3.5 7.0 0.00 0.00 0.00 35 1008.6
20260505174554 49 97 2.6 6.1 0.00 0.00 0.00 36 1008.4
20260505173052 50 78 2.6 7.0 0.00 0.00 0.00 34 1008.4
20260505171552 50 1 2.6 7.8 0.00 0.00 0.00 33 1008.3
20260505170050 50 75 5.2 9.6 0.00 0.00 0.00 34 1008.2
20260505164549 51 80 2.6 9.6 0.00 0.00 0.00 34 1008.2
20260505163048 50 114 3.5 7.8 0.00 0.00 0.00 34 1008.1
20260505161546 51 73 3.5 7.8 0.00 0.00 0.00 35 1008.1
20260505153047 51 88 3.5 7.8 0.00 0.00 0.00 34 1008.0
20260505151541 51 93 3.5 8.7 0.00 0.00 0.00 33 1008.0
20260505124524 50 99 4.3 10.4 0.00 0.00 0.00 37 1008.1
20260505123022 50 154 3.5 10.4 0.00 0.00 0.00 39 1008.1
20260505121520 50 72 5.2 13.9 0.00 0.00 0.00 38 1008.0
20260505120033 50 109 5.2 13.0 0.00 0.00 0.00 39 1007.9
20260505114517 49 71 8.7 15.6 0.00 0.00 0.00 37 1007.9
20260505113016 49 104 6.1 15.6 0.00 0.00 0.00 43 1008.0
20260505111523 49 47 7.8 12.2 0.00 0.00 0.00 39 1007.9
20260505101508 48 108 6.1 13.9 0.00 0.00 0.00 44 1007.7
20260505100007 48 59 7.0 16.5 0.00 0.00 0.00 44 1007.6
20260505094506 47 107 7.0 14.8 0.00 0.00 0.00 44 1007.7
20260505093004 47 77 10.4 14.8 0.00 0.00 0.00 43 1007.5
20260505091501 47 90 8.7 16.5 0.00 0.00 0.00 47 1007.4
20260505090123 47 73 7.0 13.9 0.00 0.00 0.00 49 1007.3
20260505084615 47 90 8.7 16.5 0.00 0.00 0.00 50 1007.2
20260505083110 46 70 7.8 13.9 0.00 0.00 0.00 51 1007.1
20260505081601 46 72 8.7 14.8 0.00 0.00 0.00 51 1007.0
20260505080100 46 42 8.7 13.9 0.00 0.00 0.00 54 1006.8
20260505074552 46 100 7.8 14.8 0.00 0.00 0.00 56 1006.8
20260505073055 46 60 6.1 17.4 0.00 0.00 0.00 55 1006.7
20260505071554 46 85 7.8 13.0 0.00 0.00 0.00 58 1006.6